Weather reports worldwide

Advertisment
Stokmarknes/Skagen, Norway (1162): temperature & dewpoint: 06.12.2019 18:00:00 - 12.12.2019 18:00:00 (CET)Stokmarknes/Skagen, Norway (1162): wind speed & gusts: 06.12.2019 18:00:00 - 12.12.2019 18:00:00 (CET)Stokmarknes/Skagen, Norway (1162): wind direction: 06.12.2019 18:00:00 - 12.12.2019 18:00:00 (CET)Stokmarknes/Skagen, Norway (1162): reduced air pressure: 06.12.2019 18:00:00 - 12.12.2019 18:00:00 (CET)Stokmarknes/Skagen, Norway (1162): visibility: 06.12.2019 18:00:00 - 12.12.2019 18:00:00 (CET)
Date & Time tt [°C] td [°C] ff [km/h] ff [kn] fx [km/h] fx [kn] dd ppp [hPa] vv [km]
12.12.2019 18:00:00 - - - - - - - - -
12.12.2019 17:00:00 4,5 -2,7 29 16 35 19 SE 984,4 10
12.12.2019 16:00:00 4,5 -3,1 26 14 37 20 SE 984,4 10
12.12.2019 15:00:00 4,4 -3,0 21 11 35 19 ESE 984,5 10
12.12.2019 14:00:00 4,3 -3,4 29 16 35 19 SE 984,6 10
12.12.2019 13:00:00 4,2 -2,9 35 19 - - SE 984,5 10
12.12.2019 12:00:00 4,1 -2,8 13 7 31 17 ESE 984,9 10
12.12.2019 11:00:00 4,3 -2,9 22 12 35 19 SE 984,8 10
12.12.2019 10:00:00 4,4 -2,7 24 13 38 20 SE 984,5 10
12.12.2019 09:00:00 4,7 -2,3 26 14 38 20 SE 984,1 10
12.12.2019 08:00:00 4,2 -1,9 29 16 38 20 SE 984,0 10
12.12.2019 07:00:00 4,6 -1,7 26 14 - - SSE 983,7 -
12.12.2019 06:00:00 4,8 -1,0 20 11 31 17 SSE 984,0 -
12.12.2019 05:00:00 5,2 -0,7 26 14 31 17 SSE 984,1 -
12.12.2019 04:00:00 4,8 -0,2 23 12 31 17 SE 984,2 -
12.12.2019 03:00:00 4,7 0,8 25 14 32 17 SE 984,5 -
12.12.2019 02:00:00 4,4 1,4 26 14 35 19 SE 984,8 -
12.12.2019 01:00:00 3,9 1,8 19 10 - - SE 985,1 -
12.12.2019 00:00:00 4,0 1,9 17 9 49 27 SSE 985,0 -
11.12.2019 23:00:00 4,8 2,3 15 8 46 25 SSE 984,4 10
11.12.2019 22:00:00 5,1 2,4 21 11 42 23 SSE 983,0 10
11.12.2019 21:00:00 5,1 2,0 21 11 38 20 SSW 982,7 10
11.12.2019 20:00:00 4,4 2,1 22 12 36 20 S 982,0 10
11.12.2019 19:00:00 5,1 2,3 18 10 - - S 981,3 10
11.12.2019 18:00:00 5,6 2,1 28 15 41 22 S 980,3 10
11.12.2019 17:00:00 5,0 2,4 26 14 37 20 SE 979,5 10
11.12.2019 16:00:00 3,7 1,8 28 15 41 22 SE 979,1 10
11.12.2019 15:00:00 2,3 1,0 34 18 48 26 SE 978,8 10
11.12.2019 14:00:00 2,2 0,6 35 19 49 26 SE 978,3 10
11.12.2019 13:00:00 2,2 0,1 35 19 - - SE 977,9 10
11.12.2019 12:00:00 1,6 -0,7 29 16 41 22 SE 978,2 10
11.12.2019 11:00:00 1,4 -1,1 31 17 41 22 SE 978,3 10
11.12.2019 10:00:00 0,6 -1,4 34 18 46 25 SE 978,7 8
11.12.2019 09:00:00 0,3 -2,2 35 19 44 24 SE 979,3 9
11.12.2019 08:00:00 -0,4 -3,1 31 17 41 22 ESE 979,8 10
11.12.2019 07:00:00 0,7 -5,2 31 17 - - ESE 980,2 10
11.12.2019 06:00:00 1,0 -5,6 35 19 55 30 ESE 980,9 10
11.12.2019 05:00:00 1,5 -5,7 39 21 55 30 ESE 981,5 10
11.12.2019 04:00:00 1,8 -5,3 34 19 50 27 ESE 983,1 -
11.12.2019 03:00:00 1,3 -6,7 31 17 45 25 E 985,2 -
11.12.2019 02:00:00 0,8 -8,0 33 18 47 26 ESE 987,6 -
11.12.2019 01:00:00 0,2 -8,2 40 21 - - ESE 989,6 -
11.12.2019 00:00:00 -0,2 -9,3 30 16 41 22 ESE 991,8 -
10.12.2019 23:00:00 -0,6 -9,6 25 14 42 23 ESE 994,2 -
10.12.2019 22:00:00 -0,6 -9,6 24 13 37 20 ESE 996,1 -
10.12.2019 21:00:00 -3,3 -7,6 11 6 35 19 ENE 998,2 10
10.12.2019 20:00:00 -1,1 -6,4 28 15 34 18 ESE 999,8 10
10.12.2019 19:00:00 -1,1 -5,7 26 14 - - ESE 1001,0 10
10.12.2019 18:00:00 -3,4 -7,9 16 9 23 12 NE 1002,3 10
10.12.2019 17:00:00 -5,2 -7,7 11 6 20 11 NE 1003,2 10
10.12.2019 16:00:00 -7,1 -8,4 9 5 13 7 NNE 1004,1 10
10.12.2019 15:00:00 -6,6 -7,7 13 7 14 7 N 1004,4 10
10.12.2019 14:00:00 -5,8 -7,0 9 5 13 7 N 1004,6 10
10.12.2019 13:00:00 -6,0 -7,0 9 5 - - N 1004,8 10
10.12.2019 12:00:00 -4,7 -5,7 5 3 10 6 N 1004,6 10
10.12.2019 11:00:00 -3,5 -4,4 5 3 10 5 N 1004,6 10
10.12.2019 10:00:00 -3,1 -3,9 4 2 13 7 - 1004,4 3,5
10.12.2019 09:00:00 -3,9 -4,8 9 5 12 6 NNE 1003,9 10
10.12.2019 08:00:00 -3,6 -4,8 5 3 13 7 NW 1003,6 10
10.12.2019 07:00:00 -4,4 -7,0 11 6 - - N 1002,8 10
10.12.2019 06:00:00 -6,8 -9,2 11 6 16 9 N 1002,3 10
10.12.2019 05:00:00 -5,4 -7,4 15 8 17 9 NE 1001,9 10
10.12.2019 04:00:00 -6,2 -9,1 13 7 16 9 N 1001,5 -
10.12.2019 03:00:00 -4,8 -7,9 10 5 21 11 NNW 1000,8 -
10.12.2019 02:00:00 -7,9 -9,7 8 5 11 6 N 999,7 -
10.12.2019 01:00:00 -6,2 -9,0 0 0 - - N 998,8 -
10.12.2019 00:00:00 -2,3 -5,9 7 4 31 17 NE 997,7 -
09.12.2019 23:00:00 -2,0 -7,2 10 5 24 13 NNW 996,6 -
09.12.2019 22:00:00 -0,8 -6,3 8 4 20 11 NE 995,4 10
09.12.2019 21:00:00 -0,9 -3,3 8 4 18 10 - 994,1 9
09.12.2019 20:00:00 -2,1 -3,0 9 5 17 9 E 992,7 1,0
09.12.2019 19:00:00 -1,6 -6,6 8 4 - - NNW 990,8 10
09.12.2019 18:00:00 -2,3 -7,1 15 8 23 12 N 989,3 10
09.12.2019 17:00:00 -3,3 -6,6 16 9 32 18 NNE 987,2 10
09.12.2019 16:00:00 -2,7 -3,8 21 11 35 19 NE 984,5 6
09.12.2019 15:00:00 -1,5 -3,5 31 17 43 23 SE 982,3 2,0
09.12.2019 14:00:00 -2,4 -3,2 24 13 38 20 SSE 981,3 2,0
09.12.2019 13:00:00 -2,4 -3,3 8 4 - - SE 981,3 2,5
09.12.2019 12:00:00 -0,6 -6,8 15 8 31 17 SSW 982,0 10
09.12.2019 11:00:00 -5,5 -8,9 9 5 13 7 WNW 982,2 10
09.12.2019 10:00:00 -3,7 -8,2 9 5 19 11 WNW 982,4 10
09.12.2019 09:00:00 -2,4 -7,9 5 3 16 9 - 982,3 10
09.12.2019 08:00:00 -2,3 -8,2 5 3 27 15 - 982,0 10
09.12.2019 07:00:00 -2,5 -6,5 9 5 - - NNW 981,6 10
09.12.2019 06:00:00 -2,3 -5,7 16 9 29 16 N 980,7 10
09.12.2019 05:00:00 -3,3 -8,3 13 7 26 14 N 980,1 10
09.12.2019 04:00:00 -5,9 -10,3 4 2 16 9 NNE 979,9 -
09.12.2019 03:00:00 -4,0 -10,0 13 7 19 11 NE 979,5 -
09.12.2019 02:00:00 -5,1 -10,6 14 7 19 10 NNE 979,0 -
09.12.2019 01:00:00 -3,2 -9,4 15 8 - - NE 978,7 -
09.12.2019 00:00:00 -4,0 -9,3 15 8 23 12 NNE 978,7 -
08.12.2019 23:00:00 -2,0 -8,1 15 8 24 13 NE 978,6 10
08.12.2019 22:00:00 -1,6 -7,7 15 8 25 13 NE 978,5 10
08.12.2019 21:00:00 -1,7 -7,4 16 9 26 14 NE 978,4 10
08.12.2019 20:00:00 -1,9 -7,4 16 9 26 14 NE 978,4 10
08.12.2019 19:00:00 -1,8 -6,9 16 9 - - NE 978,3 10
08.12.2019 18:00:00 -1,4 -6,1 21 11 31 17 NE 978,2 10
08.12.2019 17:00:00 -1,4 -6,1 16 9 24 13 NE 978,5 10
08.12.2019 16:00:00 -1,5 -6,3 15 8 22 12 NE 979,1 10
08.12.2019 15:00:00 -1,3 -6,0 15 8 24 13 NE 979,7 10
08.12.2019 14:00:00 -2,8 -6,2 8 4 13 7 NE 980,1 10
08.12.2019 13:00:00 -3,2 -4,7 8 4 - - NNW 980,5 10
08.12.2019 12:00:00 -3,1 -5,2 2 1 13 7 - 980,9 10
08.12.2019 11:00:00 -1,1 -3,8 8 4 19 10 N 981,4 10
08.12.2019 10:00:00 0,2 -3,8 14 8 25 13 N 981,4 -
08.12.2019 09:00:00 -0,1 -3,7 16 9 24 13 N 981,7 -
08.12.2019 08:00:00 -1,2 -2,9 8 4 16 9 NW 982,3 -
08.12.2019 07:00:00 -0,2 -1,9 6 3 - - NNW 982,4 -
08.12.2019 06:00:00 -0,8 -1,4 7 4 30 16 W 982,3 -
08.12.2019 05:00:00 -1,1 -2,7 6 3 16 9 NNW 982,5 -
08.12.2019 04:00:00 -0,4 -4,2 13 7 24 13 N 982,3 -
08.12.2019 03:00:00 -0,7 -2,3 9 5 18 10 NNW 982,6 -
08.12.2019 02:00:00 -0,3 -2,3 8 4 14 8 NNW 982,2 -
08.12.2019 01:00:00 0,0 -0,5 4 2 - - WNW 982,0 -
08.12.2019 00:00:00 0,0 -0,6 8 4 14 8 NW 981,9 -
07.12.2019 23:00:00 0,2 -0,4 4 2 8 5 W 981,7 -
07.12.2019 22:00:00 0,3 -0,5 6 3 13 7 NW 981,2 -
07.12.2019 21:00:00 0,7 -1,0 10 5 14 7 WNW 980,9 -
07.12.2019 20:00:00 0,8 -1,1 8 5 11 6 NNW 980,2 -
07.12.2019 19:00:00 0,6 -1,2 8 5 - - NW 979,7 -
07.12.2019 18:00:00 0,8 -0,4 4 2 18 10 NW 979,1 -
07.12.2019 17:00:00 0,9 -0,5 12 6 16 9 WNW 978,5 -
07.12.2019 16:00:00 1,3 -1,4 6 3 20 11 N 977,9 -
07.12.2019 15:00:00 1,1 -0,6 9 5 14 7 NW 977,1 -
07.12.2019 14:00:00 1,2 0,4 2 1 8 4 - 976,3 7
07.12.2019 13:00:00 1,0 0,3 4 2 - - NNW 975,7 8
07.12.2019 12:00:00 1,1 0,2 2 1 9 5 - 975,0 8
07.12.2019 11:00:00 1,8 0,5 9 5 14 8 NW 974,4 10
07.12.2019 10:00:00 1,4 0,2 4 2 15 8 ENE 973,8 -
07.12.2019 09:00:00 1,9 0,3 11 6 16 9 NE 973,4 -
07.12.2019 08:00:00 1,7 0,4 11 6 20 11 NE 972,9 -
07.12.2019 07:00:00 1,8 0,6 8 4 - - ENE 972,6 -
07.12.2019 06:00:00 1,5 0,5 9 5 18 10 ENE 972,4 -
07.12.2019 05:00:00 1,5 0,7 14 7 22 12 NE 972,3 -
07.12.2019 04:00:00 1,9 1,1 18 10 29 16 SE 972,1 -
07.12.2019 03:00:00 1,9 0,8 23 13 33 18 SE 972,1 -
07.12.2019 02:00:00 2,6 0,9 16 9 27 15 ESE 971,9 -
07.12.2019 01:00:00 2,9 1,3 24 13 - - SE 971,8 -
07.12.2019 00:00:00 1,9 0,5 10 5 27 15 ENE 971,7 -
06.12.2019 23:00:00 2,8 0,9 16 9 30 16 ESE 971,8 10
06.12.2019 22:00:00 2,6 0,9 16 9 26 14 SE 971,9 10
06.12.2019 21:00:00 2,3 0,8 22 12 33 18 SE 971,9 10
06.12.2019 20:00:00 3,2 0,1 24 13 29 16 ESE 971,6 10
06.12.2019 19:00:00 3,1 -0,1 24 13 - - SE 971,6 10
06.12.2019 18:00:00 3,2 -0,4 24 13 31 17 SE 971,8 10

tt = temperature
td = dewpoint
ff = wind speed
fx = gusts
dd = wind direction
ppp = reduced air pressure
vv = visibility

Next stations